Flight Track Log - Related Links

Times and Time Zones

All times are in EST time to prevent confusion due to time zone crossing. See the EJA922 flight status page for this flight to view local times or setup timezone preferences in your user account.

Time Position Orientation Groundspeed Altitude Reporting Facility
EST Latitude Longitude Course Direction KTS MPH feet Rate Location/Type
Tue 05:51:17 PM 43.5514 -116.1939 143° Southeast 179 206 4,200  Level Salt Lake Center
Tue 05:51:43 PM 43.5322 -116.1739 143° Southeast 191 220 5,600 3,379 Climbing Salt Lake Center
Tue 05:52:44 PM 43.4900 -116.0997 128° Southeast 260 299 9,100 2,585 Climbing Salt Lake Center
Tue 05:53:46 PM 43.5064 -115.9875 79° East 289 333 10,900 1,597 Climbing Salt Lake Center
Tue 05:54:48 PM 43.5281 -115.8606 77° East 349 402 12,400 1,951 Climbing Salt Lake Center
Tue 05:55:49 PM 43.5536 -115.7122 77° East 374 430 14,900 2,146 Climbing Salt Lake Center
Tue 05:56:51 PM 43.5797 -115.5603 77° East 387 445 16,800 1,597 Climbing Salt Lake Center
Tue 05:57:53 PM 43.6064 -115.4019 77° East 406 467 18,200 1,561 Climbing Salt Lake Center
Tue 05:58:54 PM 43.6314 -115.2489 77° East 421 484 20,000 1,610 Climbing Salt Lake Center
Tue 05:59:56 PM 43.6578 -115.0892 77° East 432 497 21,500 1,597 Climbing Salt Lake Center
Tue 06:00:58 PM 43.6861 -114.9200 77° East 451 519 23,300 1,707 Climbing Salt Lake Center
Tue 06:01:59 PM 43.7136 -114.7494 77° East 457 526 25,000 1,805 Climbing Salt Lake Center
Tue 06:03:01 PM 43.7483 -114.5372 77° East 473 544 27,000 1,805 Climbing Salt Lake Center
Tue 06:04:02 PM 43.7769 -114.3558 78° East 486 559 28,700 1,512 Climbing Salt Lake Center
Tue 06:05:04 PM 43.8053 -114.1708 78° East 497 572 30,100 1,548 Climbing Salt Lake Center
Tue 06:06:06 PM 43.8344 -113.9833 78° East 501 577 31,900 1,951 Climbing Salt Lake Center
Tue 06:07:07 PM 43.8669 -113.7697 78° East 503 579 34,100 2,049 Climbing Salt Lake Center
Tue 06:08:09 PM 43.8928 -113.5900 79° East 498 573 36,100 1,854 Climbing Salt Lake Center
Tue 06:09:10 PM 43.9178 -113.4136 79° East 490 564 37,900 1,561 Climbing Salt Lake Center
Tue 06:10:12 PM 43.9472 -113.2097 79° East 484 557 39,300 1,122 Climbing Salt Lake Center
Tue 06:11:13 PM 43.9717 -113.0344 79° East 484 557 40,200 683 Climbing Salt Lake Center
Tue 06:12:15 PM 44.0022 -112.8242 79° East 497 572 40,700 390 Climbing Salt Lake Center
Tue 06:13:16 PM 44.0281 -112.6397 79° East 507 583 41,000 146 Climbing Salt Lake Center
Tue 06:14:18 PM 44.0569 -112.4525 78° East 518 596 41,000  Level Salt Lake Center
Tue 06:15:19 PM 44.0858 -112.2214 80° East 540 621 41,000  Level Salt Lake Center
Tue 06:16:21 PM 44.0908 -112.0164 88° East 551 634 41,000  Level Salt Lake Center
Tue 06:17:22 PM 44.0928 -111.7717 89° East 568 654 41,000  Level Salt Lake Center
Tue 06:18:24 PM 44.0931 -111.5594 90° East 577 664 41,000  Level Salt Lake Center
Tue 06:19:25 PM 44.0944 -111.3125 89° East 577 664 41,000  Level Salt Lake Center
Tue 06:20:27 PM 44.0942 -111.1022 90° East 575 662 41,000  Level Salt Lake Center
Tue 06:21:28 PM 44.0933 -110.8558 90° East 575 662 41,000  Level Salt Lake Center
Tue 06:22:30 PM 44.0919 -110.6436 90° East 576 663 41,000  Level Salt Lake Center
Tue 06:23:31 PM 44.0928 -110.4317 90° East 575 662 41,000  Level Salt Lake Center
Tue 06:24:33 PM 44.0906 -110.1850 91° East 574 661 41,000  Level Salt Lake Center
Tue 06:25:34 PM 44.0881 -109.9722 91° East 577 664 41,000  Level Salt Lake Center
Tue 06:26:36 PM 44.0844 -109.7297 91° East 566 651 41,000  Level Salt Lake Center
Tue 06:27:37 PM 44.0833 -109.5169 90° East 572 658 41,000  Level Salt Lake Center
Tue 06:28:39 PM 44.0792 -109.3111 92° East 569 655 41,000  Level Salt Lake Center
Tue 06:29:40 PM 44.0758 -109.0481 91° East 571 657 41,000  Level Salt Lake Center
Tue 06:30:42 PM 44.0714 -108.8261 92° East 575 662 41,000  Level Salt Lake Center
Tue 06:31:43 PM 44.0669 -108.6047 92° East 577 664 41,000  Level Salt Lake Center
Tue 06:32:45 PM 44.0603 -108.3797 92° East 583 671 41,000  Level Salt Lake Center
Tue 06:33:46 PM 44.0547 -108.1583 92° East 581 669 41,000  Level Salt Lake Center
Tue 06:34:48 PM 44.0492 -107.9383 92° East 577 664 41,000  Level Salt Lake Center
Tue 06:35:49 PM 44.0408 -107.6717 92° East 581 669 41,000  Level Salt Lake Center
Tue 06:36:51 PM 44.0353 -107.4494 92° East 581 669 41,000  Level Salt Lake Center
Tue 06:37:52 PM 44.0278 -107.2264 93° East 583 671 41,000  Level Salt Lake Center
Tue 06:38:54 PM 44.0200 -107.0056 93° East 578 665 41,000  Level Salt Lake Center
Tue 06:39:55 PM 44.0117 -106.7831 93° East 581 669 41,000  Level Salt Lake Center
Tue 06:40:57 PM 44.0036 -106.5614 93° East 579 666 41,000  Level Salt Lake Center
Tue 06:41:58 PM 43.9992 -106.3394 92° East 578 665 41,000  Level Salt Lake Center
Tue 06:43:00 PM 44.0022 -106.0936 89° East 579 666 41,000  Level Salt Lake Center
Tue 06:44:01 PM 44.0033 -105.8786 90° East 581 669 41,000  Level Salt Lake Center
Tue 06:45:19 PM 44.0033 -105.5589 90° East 578 665 41,000  Level Denver Center
Tue 06:46:21 PM 44.0028 -105.3456 90° East 578 665 41,000  Level Denver Center
Tue 06:47:23 PM 44.0025 -105.0964 90° East 577 664 41,000  Level Denver Center
Tue 06:48:25 PM 44.0008 -104.8814 91° East 578 665 41,000  Level Denver Center
Tue 06:49:27 PM 43.9997 -104.6658 90° East 581 669 41,000  Level Denver Center
Tue 06:50:29 PM 43.9978 -104.4133 91° East 584 672 41,000  Level Denver Center
Tue 06:51:31 PM 43.9947 -104.1983 91° East 582 670 41,000  Level Denver Center
Tue 06:52:33 PM 43.9925 -103.9464 91° East 582 670 41,000  Level Denver Center
Tue 06:53:34 PM 43.9889 -103.7308 91° East 583 671 41,000  Level Denver Center
Tue 06:54:36 PM 43.9850 -103.4819 91° East 577 664 41,000  Level Denver Center
Tue 06:55:39 PM 43.9814 -103.2708 91° East 574 661 41,000  Level Denver Center
Tue 06:56:40 PM 43.9778 -103.0569 91° East 576 663 41,000  Level Denver Center
Tue 06:57:42 PM 43.9703 -102.8019 92° East 581 669 41,000  Level Denver Center
Tue 06:58:44 PM 43.9631 -102.5761 92° East 585 673 41,000  Level Denver Center
Tue 06:59:45 PM 43.9558 -102.3522 92° East 584 672 41,000  Level Denver Center
Tue 07:00:47 PM 43.9475 -102.1269 93° East 586 674 41,000  Level Denver Center
Tue 07:01:49 PM 43.9394 -101.9031 93° East 585 673 41,000  Level Denver Center
Tue 07:02:51 PM 43.9342 -101.6825 92° East 580 667 41,000  Level Denver Center
Tue 07:03:53 PM 43.9239 -101.4156 93° East 580 667 41,000  Level Denver Center
Tue 07:04:54 PM 43.9147 -101.1933 93° East 580 667 41,000  Level Denver Center
Tue 07:05:56 PM 43.9058 -100.9725 93° East 577 664 41,000  Level Denver Center
Tue 07:06:58 PM 43.8964 -100.7525 93° East 576 663 41,000  Level Denver Center
Tue 07:08:00 PM 43.8869 -100.5353 93° East 571 657 41,000  Level Denver Center
Tue 07:09:01 PM 43.8764 -100.3192 94° East 567 652 41,000  Level Denver Center
Tue 07:10:07 PM 43.8633 -100.0600 94° East 568 654 41,000  Level Minneapolis Center
Tue 07:11:08 PM 43.8522 -99.8436 94° East 567 652 41,000  Level Minneapolis Center
Tue 07:12:10 PM 43.8403 -99.6258 94° East 569 655 41,000  Level Minneapolis Center
Tue 07:13:11 PM 43.8292 -99.4064 94° East 573 659 41,000  Level Minneapolis Center
Tue 07:14:13 PM 43.8158 -99.1889 95° East 571 657 41,000  Level Minneapolis Center
Tue 07:15:14 PM 43.8008 -98.9267 94° East 573 659 41,000  Level Minneapolis Center
Tue 07:16:16 PM 43.7875 -98.7092 95° East 572 658 41,000  Level Minneapolis Center
Tue 07:17:17 PM 43.7722 -98.4756 95° East 574 661 41,000  Level Minneapolis Center
Tue 07:18:19 PM 43.7572 -98.2569 95° East 574 661 41,000  Level Minneapolis Center
Tue 07:19:20 PM 43.7436 -98.0383 95° East 574 661 41,000  Level Minneapolis Center
Tue 07:20:22 PM 43.7275 -97.8197 96° East 574 661 41,000  Level Minneapolis Center
Tue 07:21:24 PM 43.7125 -97.6000 95° East 576 663 41,000  Level Minneapolis Center
Tue 07:22:25 PM 43.6961 -97.3819 96° East 575 662 41,000  Level Minneapolis Center
Tue 07:23:27 PM 43.6794 -97.1633 96° East 576 663 41,000  Level Minneapolis Center
Tue 07:24:28 PM 43.6586 -96.8994 96° East 579 666 41,000  Level Minneapolis Center
Tue 07:25:30 PM 43.6358 -96.6806 98° East 581 669 41,000  Level Minneapolis Center
Tue 07:26:31 PM 43.6033 -96.4639 102° East 581 669 41,000  Level Minneapolis Center
Tue 07:27:33 PM 43.5725 -96.2469 101° East 583 671 41,000  Level Minneapolis Center
Tue 07:28:34 PM 43.5386 -96.0308 102° East 585 673 41,000  Level Minneapolis Center
Tue 07:29:36 PM 43.5056 -95.8142 102° East 583 671 41,000  Level Minneapolis Center
Tue 07:30:37 PM 43.4661 -95.5542 102° East 583 671 41,000  Level Minneapolis Center
Tue 07:31:39 PM 43.4317 -95.3372 102° East 584 672 41,000  Level Minneapolis Center
Tue 07:32:40 PM 43.3964 -95.1219 103° East 583 671 41,000  Level Minneapolis Center
Tue 07:33:42 PM 43.3619 -94.9033 102° East 586 674 41,000  Level Minneapolis Center
Tue 07:34:43 PM 43.3264 -94.6858 103° East 586 674 41,000  Level Minneapolis Center
Tue 07:35:45 PM 43.2900 -94.4681 103° East 588 677 41,000  Level Minneapolis Center
Tue 07:36:46 PM 43.2519 -94.2419 103° East 588 677 41,000  Level Minneapolis Center
Tue 07:37:48 PM 43.2183 -94.0211 102° East 592 681 41,000  Level Minneapolis Center
Tue 07:38:50 PM 43.1778 -93.8069 104° East 584 672 41,000  Level Minneapolis Center
Tue 07:39:51 PM 43.1414 -93.5897 103° East 586 674 41,000  Level Minneapolis Center
Tue 07:40:53 PM 43.0967 -93.3294 103° East 587 676 41,000  Level Minneapolis Center
Tue 07:41:54 PM 43.0794 -93.1094 96° East 585 673 41,000  Level Minneapolis Center
Tue 07:42:56 PM 43.0653 -92.8886 95° East 585 673 41,000  Level Minneapolis Center
Tue 07:43:57 PM 43.0494 -92.6708 96° East 580 667 41,000  Level Minneapolis Center
Tue 07:44:41 PM 43.0353 -92.4969 96° East 584 672 41,000  Level Chicago Center
Tue 07:45:42 PM 43.0186 -92.2781 96° East 582 670 41,000  Level Chicago Center
Tue 07:46:44 PM 43.0022 -92.0608 96° East 579 666 41,000  Level Chicago Center
Tue 07:47:45 PM 42.9864 -91.8433 96° East 576 663 41,000  Level Chicago Center
Tue 07:48:47 PM 42.9697 -91.6247 96° East 573 659 41,000  Level Chicago Center
Tue 07:49:48 PM 42.9531 -91.4069 96° East 569 655 41,000  Level Chicago Center
Tue 07:50:50 PM 42.9364 -91.1906 96° East 569 655 41,000  Level Chicago Center
Tue 07:51:51 PM 42.9186 -90.9758 96° East 568 654 41,000  Level Chicago Center
Tue 07:52:52 PM 42.8967 -90.7633 98° East 566 651 41,000  Level Chicago Center
Tue 07:53:54 PM 42.8631 -90.5506 102° East 573 659 41,000  Level Chicago Center
Tue 07:54:55 PM 42.8275 -90.2967 101° East 571 657 41,000  Level Chicago Center
Tue 07:55:57 PM 42.7975 -90.0858 101° East 571 657 41,000  Level Chicago Center
Tue 07:56:58 PM 42.7686 -89.8825 101° East 570 656 41,000  Level Chicago Center
Tue 07:58:00 PM 42.7375 -89.6728 101° East 569 655 41,000  Level Chicago Center
Tue 07:59:01 PM 42.7064 -89.4625 101° East 570 656 41,000  Level Chicago Center
Tue 08:00:03 PM 42.6692 -89.2108 101° East 570 656 41,000  Level Chicago Center
Tue 08:01:04 PM 42.6375 -89.0025 102° East 569 655 41,000  Level Chicago Center
Tue 08:02:06 PM 42.6053 -88.7947 102° East 567 652 41,000  Level Chicago Center
Tue 08:03:08 PM 42.5731 -88.5872 102° East 566 651 41,000  Level Chicago Center
Tue 08:04:09 PM 42.5400 -88.3769 102° East 573 659 41,000  Level Chicago Center
Tue 08:05:11 PM 42.5067 -88.1681 102° East 572 658 41,000  Level Chicago Center
Tue 08:06:12 PM 42.4733 -87.9589 102° East 571 657 41,000  Level Chicago Center
Tue 08:07:14 PM 42.4325 -87.7100 102° East 569 655 41,000  Level Chicago Center
Tue 08:08:15 PM 42.3969 -87.5028 103° East 568 654 41,000  Level Chicago Center
Tue 08:09:17 PM 42.3594 -87.2881 103° East 570 656 41,000  Level Chicago Center
Tue 08:10:18 PM 42.3253 -87.0800 102° East 570 656 41,000  Level Chicago Center
Tue 08:11:20 PM 42.2872 -86.8628 103° East 571 657 41,000  Level Chicago Center
Tue 08:12:22 PM 42.2503 -86.6556 103° East 569 655 41,000  Level Chicago Center
Tue 08:13:23 PM 42.2139 -86.4489 103° East 568 654 41,000  Level Chicago Center
Tue 08:14:25 PM 42.1758 -86.2406 104° East 571 657 41,000  Level Chicago Center
Tue 08:15:26 PM 42.1378 -86.0342 104° East 568 654 41,000  Level Chicago Center
Tue 08:16:28 PM 42.0958 -85.8031 104° East 569 655 41,000  Level Chicago Center
Tue 08:17:30 PM 42.0569 -85.5964 104° East 572 658 41,000  Level Chicago Center
Tue 08:18:31 PM 42.0186 -85.3919 104° East 570 656 41,000  Level Chicago Center
Tue 08:19:33 PM 41.9747 -85.1600 104° East 569 655 41,000  Level Chicago Center
Tue 08:20:35 PM 41.9347 -84.9519 104° East 571 657 41,000  Level Chicago Center
Tue 08:21:36 PM 41.8944 -84.7444 105° East 571 657 41,000  Level Chicago Center
Tue 08:22:38 PM 41.8542 -84.5375 105° East 571 657 41,000  Level Chicago Center
Tue 08:23:40 PM 41.8131 -84.3317 105° East 572 658 41,000  Level Chicago Center
Tue 08:24:41 PM 41.7731 -84.1258 105° East 571 657 41,000  Level Chicago Center
Tue 08:25:43 PM 41.7308 -83.9219 105° East 570 656 41,000  Level Chicago Center
Tue 08:27:06 PM 41.6769 -83.6194 103° East 570 656 41,000  Level Cleveland Center
Tue 08:28:07 PM 41.6672 -83.4117 94° East 565 650 41,000  Level Cleveland Center
Tue 08:29:08 PM 41.6967 -83.2092 79° East 563 648 41,000  Level Cleveland Center
Tue 08:30:09 PM 41.7258 -83.0072 79° East 562 647 41,000  Level Cleveland Center
Tue 08:31:10 PM 41.7553 -82.8053 79° East 560 644 41,000  Level Cleveland Center
Tue 08:32:11 PM 41.7839 -82.6031 79° East 560 644 41,000  Level Cleveland Center
Tue 08:33:12 PM 41.8192 -82.3592 79° East 560 644 41,000  Level Cleveland Center
Tue 08:34:13 PM 41.8472 -82.1558 79° East 559 643 41,000  Level Cleveland Center
Tue 08:35:14 PM 41.8728 -81.9631 80° East 559 643 41,000  Level Cleveland Center
Tue 08:36:15 PM 41.9014 -81.7553 79° East 559 643 41,000  Level Cleveland Center
Tue 08:37:16 PM 41.9297 -81.5469 80° East 558 642 41,000  Level Cleveland Center
Tue 08:38:17 PM 41.9572 -81.3386 80° East 559 643 41,000  Level Cleveland Center
Tue 08:39:18 PM 41.9850 -81.1308 80° East 559 643 41,000  Level Cleveland Center
Tue 08:40:19 PM 42.0125 -80.9219 80° East 559 643 41,000  Level Cleveland Center
Tue 08:41:20 PM 42.0386 -80.7128 80° East 559 643 41,000  Level Cleveland Center
Tue 08:42:22 PM 42.0664 -80.5047 80° East 560 644 41,000  Level Cleveland Center
Tue 08:43:23 PM 42.0919 -80.2961 81° East 560 644 41,000  Level Cleveland Center
Tue 08:44:24 PM 42.1181 -80.0847 80° East 564 649 41,000  Level Cleveland Center
Tue 08:45:25 PM 42.1433 -79.8697 81° East 569 655 41,000  Level Cleveland Center
Tue 08:46:26 PM 42.1686 -79.6606 81° East 568 654 41,000  Level Cleveland Center
Tue 08:47:27 PM 42.1925 -79.4517 81° East 567 652 41,000  Level Cleveland Center
Tue 08:48:28 PM 42.2158 -79.2439 81° East 566 651 41,000  Level Cleveland Center
Tue 08:49:29 PM 42.2422 -78.9931 82° East 564 649 41,000  Level Cleveland Center
Tue 08:50:30 PM 42.2647 -78.7858 82° East 565 650 41,000  Level Cleveland Center
Tue 08:51:31 PM 42.2881 -78.5764 81° East 567 652 41,000 -984 Level Cleveland Center
Tue 08:52:32 PM 42.3100 -78.3678 82° East 566 651 39,000 -2,262 Descending Cleveland Center
Tue 08:53:33 PM 42.3317 -78.1644 82° East 557 641 36,400 -2,607 Descending Cleveland Center
Tue 08:54:34 PM 42.3533 -77.9622 82° East 553 636 33,700 -2,628 Descending Cleveland Center
Tue 08:55:34 PM 42.3739 -77.7628 82° East 548 631 31,100 -2,529 Descending Cleveland Center
Tue 08:56:35 PM 42.3917 -77.5692 83° East 536 617 28,600 -1,525 Descending Cleveland Center
Tue 08:57:36 PM 42.4144 -77.3464 82° East 511 588 28,000 -492 Descending Cleveland Center
Tue 08:58:37 PM 42.4314 -77.1553 83° East 513 590 27,600 -492 Descending Cleveland Center
Tue 08:59:38 PM 42.4492 -76.9678 83° East 511 588 27,000 -308 Descending Cleveland Center
Tue 09:00:34 PM 42.4631 -76.8175 83° East 507 583 27,000  Level Boston Center
Tue 09:01:37 PM 42.4803 -76.6269 83° East 510 587 27,000  Level Boston Center
Tue 09:02:36 PM 42.4808 -76.4008 90° East 514 592 27,000  Level Boston Center
Tue 09:03:36 PM 42.4489 -76.2336 104° East 495 570 27,000  Level Boston Center
Tue 09:04:39 PM 42.4153 -76.0700 105° East 500 575 27,000  Level Boston Center
Tue 09:05:36 PM 42.3686 -75.8494 106° East 510 587 27,000 -1,008 Level Boston Center
Tue 09:06:38 PM 42.3314 -75.6697 106° East 503 579 25,000 -2,468 Descending Boston Center
Tue 09:07:40 PM 42.2972 -75.5114 106° East 483 556 21,900 -3,073 Descending Boston Center
Tue 09:08:41 PM 42.2636 -75.3492 106° East 454 522 18,700 -3,000 Descending Boston Center
Tue 09:09:42 PM 42.2303 -75.1944 106° East 435 501 15,800 -2,975 Descending Boston Center
Tue 09:10:42 PM 42.1947 -75.0294 106° East 436 502 12,700 -2,319 Descending Boston Center
Tue 09:11:41 PM 42.1533 -74.8928 112° Southeast 407 468 11,200 -750 Descending Boston Center
Tue 09:12:42 PM 42.1003 -74.7686 120° Southeast 385 443 11,200 -541 Level Boston Center
Tue 09:13:43 PM 42.0433 -74.6356 120° Southeast 382 440 10,100 -1,131 Descending Boston Center
Tue 09:14:44 PM 42.0025 -74.5381 119° Southeast 301 346 8,900 -1,230 Descending Boston Center
Tue 09:15:45 PM 41.9517 -74.4569 130° Southeast 293 337 7,600 -958 Descending Boston Center
Tue 09:16:43 PM 41.8775 -74.4286 164° South 277 319 7,000 -298 Descending Boston Center
Tue 09:17:46 PM 41.8036 -74.4019 165° South 276 318 7,000 -643 Level Boston Center
Tue 09:19:31 PM 41.6667 -74.3667 169° South 262 302 5,200 -1,132 Descending New York TRACON
Tue 09:20:25 PM 41.6000 -74.3833 191° South 264 304 4,000 -600 Descending New York TRACON
Tue 09:21:31 PM 41.5333 -74.4000 191° South 230 265 4,000 -238 Level New York TRACON
Tue 09:22:31 PM 41.4833 -74.3833 166° South 223 257 3,500 -526 Descending New York TRACON
Tue 09:23:25 PM 41.4667 -74.3167 108° East 190 219 3,000 -368 Descending New York TRACON
Tue 09:24:25 PM 41.4833 -74.2500 72° East 177 204 2,800 -500 Descending New York TRACON
Tue 09:25:25 PM 41.4833 -74.2000 90° East 117 135 2,000 -800 Descending New York TRACON
Tue 09:26:25 PM 41.5000 -74.1667 56° Northeast 116 133 1,200 -800 Descending New York TRACON

Login

Don't have an account? Register now (free) for customized features, flight alerts, and more!